Location: Czekan�w
(50.3488°N, 18.7344°E)
Time: 18:37:23
(UTC+00:00)

CZ-4 R/B - Pass Details

Date: 17 February 2020
Orbit: 531 x 599 km, 97.7° (Epoch: 29 March)

Event Time Altitude Azimuth Distance (km) Brightness Sun altitude
Rises 05:09:57 0° 25° (NNE) 2,794 5.1 -7.6°
Reaches altitude 10° 05:12:33 10° 41° (NE) 1,876 4.5 -7.2°
Maximum altitude 05:15:42 21° 92° (E) 1,275 4.4 -6.7°
Drops below altitude 10° 05:18:46 10° 143° (SE) 1,832 4.8 -6.2°
Sets 05:21:16 0° 160° (SSE) 2,708 5.3 -5.9°
